Regional Weather Roundup
Issued by NWS Cleveland, OH

Home | Current Version | Previous Version | Text Only | Print | Product List | Glossary Off
Versions: 1 2 3 4 5 6 7 8 9 10 11 12 13 14 15 16 17 18 19 20 21 22 23 24 25 26 27 28 29 30 31 32 33 34 35 36 37 38 39 40 41 42 43 44 45 46 47 48 49 50

000
ASUS41 KCLE 281110
RWRCLE
OHIO REGIONAL WEATHER ROUNDUP
NATIONAL WEATHER SERVICE WILMINGTON, OH
700 AM EDT TUE JUL 28 2015

NOTE: "FAIR" INDICATES FEW OR NO CLOUDS BELOW 12,000 FEET WITH NO
SIGNIFICANT WEATHER AND/OR OBSTRUCTIONS TO VISIBILITY.

OHZ001>008-015>018-024>027-034-035-043-044-281200-
   NORTHWEST OHIO

CITY           SKY/WX    TMP DP  RH WIND       PRES   REMARKS
DEFIANCE       CLEAR     63  60  90 N5        30.04R FOG
FINDLAY        CLEAR     65  62  90 CALM      30.03R
TOLEDO EXPRESS CLEAR     63  62  97 CALM      30.03R
TOLEDO EXEC    CLEAR     67  63  87 CALM      30.04R
LIMA           CLEAR     66  63  90 E6        30.03R
$$

OHZ009>014-019>023-028>033-038-089-281200-
   NORTHEAST OHIO

CITY           SKY/WX    TMP DP  RH WIND       PRES   REMARKS
CLE-HOPKINS    PTCLDY    67  60  78 CALM      30.05R
CLE-LAKEFRONT  PTCLDY    72  62  71 E3        30.02R
CUY CO. ARPT   CLEAR     68  63  83 CALM      30.04
LORAIN-ELYRIA  CLEAR     61  60  97 CALM      30.04S FOG
ASHTABULA      CLEAR     62  60  93 CALM      30.06S
AKRON-CANTON   PTCLDY    67  62  84 E7        30.05R
WOOSTER        CLEAR     61  59  93 CALM      30.05R FOG
MANSFIELD      CLEAR     65  62  90 CALM      30.06R
YOUNGSTOWN     CLEAR     65  63  93 E7        30.06R
$$

OHZ042-051>053-060>062-070>072-077>081-281200-
  SOUTHWEST OHIO

CITY           SKY/WX    TMP DP  RH WIND       PRES   REMARKS
CINC-COVINGTON MOCLDY    74  71  91 SE5       30.00R FOG
CINC-LUNKEN    FOG       70  70 100 CALM      30.00R VSB 1
HAMILTON       PTCLDY    70  69  97 CALM      30.01R FOG
DAYTON         MOCLDY    70  66  87 E5        30.03R
WRIGHT-PAT AFB MOCLDY    70  66  87 NW1       30.01S
DAYTON GENERAL   N/A    N/A N/A N/A MISG      30.01R
WILMINGTON     CLEAR     70  68  93 NE6       30.02R FOG
$$

OHZ036-037-039>041-045>050-054>059-063>069-073>076-082>088-281200-
  CENTRAL AND SOUTHEAST OHIO

CITY           SKY/WX    TMP DP  RH WIND       PRES   REMARKS
COLUMBUS       MOCLDY    71  64  78 CALM      30.01R
OSU AIRPORT    PTCLDY    67  64  90 CALM      30.02R
BOLTON FIELD   CLEAR     66  66  98 CALM      30.03R
RICKENBACK AFB CLEAR     69  65  85 NE5       30.01R
NEWARK         MOCLDY    66  64  93 NE3       30.02R FOG
MARION         PTCLDY    64  61  90 CALM      30.04R FOG
LANCASTER      CLEAR     66  64  93 N3        30.02R
ZANESVILLE     MOCLDY    67  64  90 CALM      30.02R
NEW PHILLY     MOCLDY    64  63  96 CALM      30.04R
$$


USA.gov is the U.S. government's official web portal to all federal, state and local government web resources and services.